GW3416 Weather Reports


time (UTC)temp
C
wind
direction
speed
KPH
gust
KPH
rain 1hr
cm
rain 24hr
cm
rain mn
cm
humidity
%
barometer
mb
20260503220519 16 151 1.6 4.8 0.00 0.00 0.00 71 1034.2
20260503215520 16 142 1.6 4.8 0.00 0.00 0.00 72 1034.1
20260503214524 16 167 1.6 3.2 0.00 0.00 0.00 76 1034.2
20260503213520 15 150 0.0 3.2 0.00 0.00 0.00 80 1034.2
20260503212516 15 164 1.6 4.8 0.00 0.00 0.00 83 1034.2
20260503211517 14 173 0.0 3.2 0.00 0.00 0.00 86 1034.2
20260503210520 13 172 1.6 4.8 0.00 0.00 0.00 90 1034.3
20260503205520 13 215 0.0 3.2 0.00 0.00 0.00 92 1034.4
20260503204517 13 200 0.0 3.2 0.00 0.00 0.00 93 1034.5
20260503203517 13 181 0.0 1.6 0.00 0.00 0.00 94 1034.5
20260503202520 12 0.0 0.0 0.00 0.00 0.00 94 1034.4
20260503201521 12 234 0.0 1.6 0.00 0.00 0.00 94 1034.4
20260503200518 12 169 0.0 1.6 0.00 0.00 0.00 94 1034.3
20260503195518 12 0.0 0.0 0.00 0.00 0.00 94 1034.3
20260503194517 12 179 0.0 1.6 0.00 0.00 0.00 94 1034.2
20260503193518 12 0.0 0.0 0.00 0.00 0.00 93 1034.2
20260503192521 12 162 0.0 0.0 0.00 0.00 0.00 93 1034.1
20260503191521 12 181 0.0 1.6 0.00 0.00 0.00 93 1033.9
20260503190518 12 184 0.0 0.0 0.00 0.00 0.00 93 1033.8
20260503185539 12 0.0 0.0 0.00 0.00 0.00 93 1033.8
20260503184519 12 172 0.0 1.6 0.00 0.00 0.00 93 1033.7
20260503183540 12 0.0 0.0 0.00 0.00 0.00 93 1033.6
20260503182520 12 0.0 0.0 0.00 0.00 0.00 93 1033.5
20260503181519 11 179 0.0 1.6 0.00 0.00 0.00 93 1033.4
20260503180518 11 153 0.0 1.6 0.00 0.00 0.00 93 1033.4
20260503175519 11 183 0.0 1.6 0.00 0.00 0.00 93 1033.4
20260503174519 11 0.0 0.0 0.00 0.00 0.00 93 1033.4
20260503173519 11 0.0 0.0 0.00 0.00 0.00 93 1033.2
20260503172517 11 167 0.0 1.6 0.00 0.00 0.00 93 1033.1
20260503171516 11 183 0.0 1.6 0.00 0.00 0.00 93 1033.2
20260503170519 11 333 0.0 1.6 0.00 0.00 0.00 93 1033.2
20260503150519 12 221 0.0 1.6 0.00 0.00 0.00 92 1033.5
20260503130520 12 0.0 0.0 0.00 0.00 0.00 91 1034.2
20260503110521 12 181 0.0 1.6 0.00 0.00 0.00 89 1034.2
20260503081519 13 177 0.0 1.6 0.00 0.00 0.00 86 1033.4
20260503080520 13 159 0.0 1.6 0.00 0.00 0.00 86 1033.4
20260503072521 13 163 0.0 0.0 0.00 0.00 0.00 85 1033.0
20260503071522 13 171 0.0 3.2 0.00 0.00 0.00 84 1032.8
20260503070518 13 181 0.0 1.6 0.00 0.00 0.00 83 1032.7
20260503054518 16 0.0 0.0 0.00 0.00 0.00 77 1032.4
20260503053519 16 0.0 0.0 0.00 0.00 0.00 76 1032.3
20260503052518 16 268 0.0 1.6 0.00 0.00 0.00 75 1032.3
20260503051518 17 0.0 0.0 0.00 0.00 0.00 71 1032.3
20260503050519 18 329 0.0 1.6 0.00 0.00 0.00 69 1032.2
20260503045519 19 348 0.0 1.6 0.00 0.00 0.00 65 1032.3
20260503044520 20 4 1.6 8.0 0.00 0.00 0.00 63 1032.3
20260503043519 21 167 0.0 1.6 0.00 0.00 0.00 59 1032.3
20260503042520 21 69 0.0 3.2 0.00 0.00 0.00 59 1032.3
20260503041519 20 153 0.0 3.2 0.00 0.00 0.00 59 1032.3
20260503040520 20 137 1.6 6.4 0.00 0.00 0.00 61 1032.3
20260503035519 20 121 1.6 4.8 0.00 0.00 0.00 61 1032.4
20260503034540 19 10 1.6 6.4 0.00 0.00 0.00 63 1032.4
20260503033538 19 359 3.2 8.0 0.00 0.00 0.00 63 1032.3
20260503032517 19 163 0.0 1.6 0.00 0.00 0.00 64 1032.3
20260503031521 20 21 1.6 6.4 0.00 0.00 0.00 63 1032.3
20260503030520 20 156 0.0 3.2 0.00 0.00 0.00 64 1032.3
20260503025518 19 5 3.2 8.0 0.00 0.00 0.00 63 1032.3
20260503024518 20 130 1.6 4.8 0.00 0.00 0.00 64 1032.3
20260503023538 20 128 0.0 4.8 0.00 0.00 0.00 64 1032.4
20260503022523 20 136 1.6 6.4 0.00 0.00 0.00 62 1032.4
20260503021521 20 1 1.6 4.8 0.00 0.00 0.00 61 1032.4
20260503020518 20 15 1.6 4.8 0.00 0.00 0.00 61 1032.5
20260503015518 20 114 1.6 8.0 0.00 0.00 0.00 61 1032.5
20260503014600 20 322 1.6 4.8 0.00 0.00 0.00 59 1032.6
20260503013518 20 118 0.0 3.2 0.00 0.00 0.00 62 1032.7
20260503012519 20 27 1.6 6.4 0.00 0.00 0.00 60 1032.7
20260503011519 19 139 1.6 8.0 0.00 0.00 0.00 64 1032.9
20260503010519 19 339 3.2 11.3 0.00 0.00 0.00 64 1033.0
20260503005519 20 150 1.6 6.4 0.00 0.00 0.00 64 1033.2
20260503004540 20 111 1.6 6.4 0.00 0.00 0.00 61 1033.2
20260503003519 18 171 1.6 4.8 0.00 0.00 0.00 63 1033.3
20260503002519 18 100 1.6 3.2 0.00 0.00 0.00 65 1033.5
20260503001519 19 79 1.6 4.8 0.00 0.00 0.00 63 1033.6
20260503000520 19 170 1.6 8.0 0.00 0.00 0.00 62 1033.7
20260502235520 19 166 1.6 4.8 0.00 0.00 0.00 63 1033.9
20260502234519 18 161 1.6 6.4 0.00 0.00 0.00 65 1034.0
20260502233518 18 133 1.6 4.8 0.00 0.00 0.00 65 1034.2
20260502232520 18 145 1.6 8.0 0.00 0.00 0.00 65 1034.3
20260502231541 18 128 1.6 6.4 0.00 0.00 0.00 63 1034.3
20260502230520 18 129 1.6 6.4 0.00 0.00 0.00 64 1034.4
20260502225520 18 61 1.6 4.8 0.00 0.00 0.00 63 1034.5
20260502224518 18 143 0.0 3.2 0.00 0.00 0.00 63 1034.5
20260502223517 18 136 0.0 3.2 0.00 0.00 0.00 64 1034.6
20260502222522 18 102 0.0 3.2 0.00 0.00 0.00 65 1034.6
20260502221520 17 135 1.6 4.8 0.00 0.00 0.00 70 1034.5